Wind_Speed
12 12 11 10 9 8 6 5 3 2 2 3 5 7 10 12 13 14 15 15 16 17 17 17 16 16 16 15 15 15 15 13 13 12 11 10 9 9 7 6 6 5 5 5
15 13 12 12 11 9 9 7 5 4 4 3 4 6 8 10 12 13 14 14 15 15 16 16 16 16 16 15 15 15 14 14 14 13 12 11 10 9 9 7 7 5 5 6
17 14 13 13 12 11 10 8 7 6 5 4 5 6 8 9 11 12 12 13 14 13 14 14 14 14 14 15 15 15 15 15 14 14 14 13 11 11 10 9 8 7 6 7
19 18 17 15 15 13 12 10 9 7 6 6 5 7 8 9 9 10 11 11 12 13 13 13 13 13 13 14 14 14 14 15 14 14 15 14 13 12 11 10 9 9 8 8
21 20 20 18 17 15 13 12 9 8 7 8 6 7 9 9 10 10 11 11 10 11 12 12 12 12 12 13 14 14 15 14 14 14 14 14 13 13 12 11 11 10 10 10
22 21 20 20 18 17 15 12 10 8 8 10 7 7 8 8 8 9 9 10 10 10 11 11 11 12 12 12 13 14 14 14 14 14 15 14 13 13 13 12 12 11 11 11
24 23 23 21 19 18 17 15 13 11 10 10 8 8 9 9 9 9 9 9 9 9 9 10 10 11 11 12 13 14 14 14 14 15 15 15 14 14 14 13 13 12 12 11
25 24 24 24 22 21 19 17 15 12 10 9 8 10 9 11 11 12 10 9 9 9 8 9 10 10 10 11 12 13 14 14 15 15 15 15 14 14 14 14 13 13 13 13
24 23 23 24 23 22 20 19 16 14 12 11 11 12 12 12 13 14 11 9 9 10 9 8 9 10 10 11 12 13 13 14 15 15 15 15 15 14 14 14 13 13 14 13
25 23 23 24 24 23 21 19 18 17 17 15 12 12 13 14 14 13 12 11 11 10 10 10 10 10 10 11 12 13 14 14 15 15 16 15 15 14 14 14 14 14 14 14
29 26 23 25 26 24 23 22 21 20 18 15 13 13 13 15 15 14 14 13 13 12 10 10 10 11 11 12 13 14 15 15 15 15 16 16 15 14 14 15 14 14 14 15
31 28 26 25 25 24 24 24 22 23 23 20 17 14 13 15 15 15 16 16 15 14 12 11 12 12 13 13 14 14 16 16 15 15 16 17 16 15 15 16 15 16 15 15
34 32 29 26 25 25 25 26 25 24 22 21 17 15 15 17 17 18 18 17 16 15 15 13 13 13 13 14 14 15 16 16 16 16 16 16 16 16 16 16 16 16 17 16
37 35 33 29 24 24 25 25 25 25 23 21 19 18 18 19 20 20 20 18 18 17 15 15 14 14 15 15 15 16 17 17 17 16 17 17 16 16 16 16 17 17 17 17
39 37 35 32 26 23 24 24 25 26 25 23 19 19 21 22 22 22 21 20 19 18 16 16 16 16 16 16 17 18 18 18 17 17 18 18 17 17 17 17 17 18 18 18
40 39 37 35 31 26 25 25 25 26 26 25 23 23 23 22 23 23 23 23 21 20 18 17 17 18 18 18 18 19 19 19 19 18 18 18 18 18 18 18 18 19 19 19
39 40 39 36 32 30 31 29 27 27 26 26 25 26 26 26 24 24 25 24 23 21 21 20 19 19 19 19 19 20 20 20 20 20 19 18 18 19 19 19 19 19 19 19
40 40 39 37 34 35 32 28 27 27 28 28 27 27 27 27 27 28 27 26 24 24 23 22 21 20 20 21 21 21 21 21 21 21 20 19 19 19 20 20 20 20 20 20
40 40 40 38 36 34 31 30 29 29 31 30 28 28 28 29 29 29 28 27 26 25 25 24 23 22 22 22 22 22 22 22 22 22 21 21 20 20 20 20 21 21 21 21
40 40 39 39 36 34 30 29 28 29 32 31 30 30 30 31 31 29 29 28 28 26 26 25 25 24 23 23 23 23 24 23 23 23 23 23 22 22 21 21 22 22 22 22
40 40 39 39 37 34 29 29 30 32 32 30 30 32 32 32 32 30 30 29 29 28 27 27 26 25 25 25 25 25 25 25 24 24 24 24 24 23 23 23 23 23 23 23
39 40 40 39 37 34 32 30 32 33 31 31 31 33 33 33 32 32 32 31 31 30 29 27 27 27 27 27 26 26 26 26 26 25 24 25 25 24 25 24 24 24 23 23
37 38 38 38 39 37 36 36 35 35 33 32 32 32 31 32 32 32 32 31 31 30 29 28 28 28 28 28 28 28 27 27 27 26 26 25 25 25 26 25 25 25 24 24
37 37 39 40 41 40 39 38 37 36 34 33 32 32 32 33 33 33 32 31 32 31 30 29 29 29 29 29 29 29 29 28 28 27 26 26 26 26 26 26 25 25 24 24
37 39 40 42 41 40 40 40 40 38 35 33 33 33 33 33 33 33 33 32 32 32 31 31 31 31 31 31 30 30 29 29 28 28 28 27 27 27 27 26 26 25 25 26
38 39 40 42 42 41 42 42 40 38 36 34 33 33 33 34 33 33 33 31 31 32 31 31 31 32 32 32 31 30 30 29 29 29 28 28 28 27 26 26 26 26 26 26
Wind_Direction
195 189 193 195 201 191 193 190 188 254 288 7 24 21 11 15 26 28 31 33 35 35 37 38 39 40 40 40 40 41 42 41 38 35 33 31 26 24 23 24 14 18 14 1
205 205 204 203 200 200 197 201 201 256 294 343 356 5 4 2 14 21 24 28 32 33 34 36 38 38 37 37 37 37 35 34 34 31 29 26 21 18 18 16 12 10 2 352
206 212 215 208 200 198 199 204 210 234 268 299 322 334 348 1 4 8 14 20 24 28 30 32 34 34 33 33 32 32 30 30 31 28 26 24 22 20 17 12 10 7 351 344
212 214 214 213 205 201 206 207 215 231 248 259 274 297 325 345 346 355 1 7 14 19 24 25 26 27 27 27 26 26 25 25 25 25 23 21 21 16 13 10 5 359 353 345
216 217 215 214 213 205 207 209 214 228 239 249 247 277 306 322 332 343 350 354 2 8 14 17 19 21 21 22 22 22 21 20 18 17 17 15 14 11 8 6 4 358 355 347
215 218 216 217 216 213 208 212 222 229 240 253 248 263 287 297 313 322 334 343 351 357 2 8 12 15 16 17 18 16 15 15 15 13 11 9 7 7 3 0 359 355 352 347
215 218 218 217 215 217 216 217 227 234 238 247 249 246 268 281 285 302 318 331 338 344 348 355 2 6 10 11 10 9 9 9 8 8 7 6 4 1 359 357 355 354 350 347
220 221 222 221 217 218 221 219 222 223 237 248 251 247 260 275 284 293 300 309 321 329 339 347 353 357 360 2 4 4 4 3 4 3 1 1 0 358 357 355 353 351 349 348
219 223 226 227 224 221 220 217 220 229 239 244 246 260 260 274 285 292 297 301 305 320 329 332 340 346 349 351 354 356 357 357 357 357 357 357 356 355 353 351 350 350 351 349
213 218 224 231 227 222 221 221 219 227 236 238 234 250 261 268 272 281 290 295 303 314 317 321 330 333 338 342 345 347 351 351 351 352 353 352 350 350 350 349 349 349 349 347
212 214 221 230 230 224 224 223 220 222 228 241 246 238 248 264 271 273 279 288 294 299 306 313 317 323 329 332 334 337 341 342 343 345 348 349 347 346 345 345 346 346 345 343
212 213 219 227 233 229 223 224 224 224 226 227 236 245 253 261 266 271 277 285 290 291 296 301 306 313 321 325 326 329 332 334 335 337 341 344 343 341 340 340 339 340 340 340
213 213 214 219 228 230 228 225 224 226 229 231 235 249 254 261 265 268 272 277 282 283 287 291 296 304 311 317 320 323 327 330 331 331 332 336 339 338 338 339 339 337 335 334
215 215 213 214 223 231 234 231 228 226 226 230 233 244 250 258 263 267 268 271 277 280 281 284 289 295 302 308 313 318 322 325 327 327 327 329 331 331 332 333 334 333 331 331
217 218 216 212 213 227 236 233 230 230 228 229 231 244 252 256 258 263 264 266 273 277 277 280 284 287 294 299 306 313 316 319 321 322 323 324 325 326 328 329 329 328 328 328
219 219 219 218 213 217 227 232 230 231 231 230 230 235 244 249 255 259 261 263 268 273 276 277 280 283 289 294 300 307 309 311 314 316 317 318 319 320 322 324 325 325 325 325
221 221 220 221 219 221 226 229 232 234 233 232 234 239 244 247 251 259 260 262 266 269 273 276 278 283 287 291 295 300 302 305 308 309 310 312 313 314 316 318 320 322 323 324
223 222 222 221 221 226 227 229 232 235 234 232 235 241 247 252 254 256 260 263 264 266 271 275 279 281 285 289 292 295 297 300 303 304 305 307 308 309 312 315 316 318 320 321
226 225 224 223 225 230 230 228 229 234 238 236 237 240 247 251 254 258 261 263 265 265 268 272 276 279 283 287 290 292 295 298 299 300 301 303 304 305 307 310 313 314 316 317
226 226 224 225 225 229 230 230 232 235 240 238 238 241 244 248 252 256 259 262 265 266 268 270 273 276 280 284 287 290 293 296 296 296 296 298 300 302 303 306 309 311 313 314
225 225 224 224 225 227 229 230 232 236 239 240 240 243 243 247 252 255 258 260 263 265 267 269 271 275 278 280 284 287 291 293 293 294 292 293 295 298 299 302 304 306 308 310
226 225 225 225 224 225 226 229 230 236 240 241 240 243 246 248 250 253 256 258 261 263 264 267 270 274 276 278 280 284 288 290 291 292 292 293 293 295 296 298 300 301 303 305
225 225 226 226 227 225 226 230 234 237 240 243 244 243 245 249 251 253 256 259 260 262 264 265 269 272 275 278 281 282 286 287 288 289 290 292 293 293 295 296 298 298 299 301
223 222 224 226 227 227 229 232 236 239 240 242 243 244 245 248 251 253 255 258 259 262 264 264 267 271 275 278 281 282 284 284 284 285 288 290 291 292 293 294 295 295 296 298
223 223 225 227 228 229 230 234 236 238 240 243 244 246 247 250 252 254 256 257 260 261 262 263 266 270 273 276 279 281 282 282 283 284 285 286 289 290 292 292 291 292 294 296
222 223 225 228 230 231 232 234 237 239 240 242 246 248 248 249 252 254 256 257 260 262 262 263 266 268 271 274 276 278 280 280 281 283 284 285 287 289 290 290 290 290 292 294
Height
5928 5931 5934 5937 5939 5941 5943 5944 5945 5945 5942 5942 5941 5940 5939 5936 5935 5933 5932 5930 5928 5927 5925 5923 5921 5920 5919 5917 5916 5914 5913 5912 5911 5910 5909 5908 5907 5906 5905 5904 5903 5902 5902 5901
5928 5930 5933 5936 5938 5940 5943 5944 5946 5945 5943 5943 5942 5941 5940 5939 5937 5935 5934 5932 5931 5929 5928 5926 5924 5923 5921 5920 5918 5917 5915 5914 5912 5911 5910 5909 5908 5906 5905 5904 5903 5902 5902 5902
5926 5930 5932 5934 5937 5940 5942 5944 5945 5944 5943 5943 5943 5942 5942 5940 5938 5937 5936 5934 5932 5931 5930 5928 5926 5925 5923 5922 5920 5918 5917 5916 5914 5913 5911 5910 5909 5907 5906 5905 5904 5903 5902 5901
5923 5927 5929 5932 5935 5938 5940 5942 5943 5943 5943 5943 5943 5942 5942 5941 5940 5938 5937 5935 5934 5932 5931 5929 5928 5927 5925 5924 5922 5920 5919 5917 5916 5914 5913 5911 5910 5908 5907 5906 5904 5903 5902 5901
5920 5923 5926 5929 5932 5934 5938 5940 5941 5942 5942 5942 5942 5943 5942 5941 5940 5939 5938 5936 5935 5933 5932 5931 5929 5928 5926 5925 5923 5922 5920 5919 5917 5915 5914 5912 5910 5909 5907 5906 5904 5903 5902 5900
5917 5920 5923 5926 5930 5932 5935 5938 5939 5941 5942 5942 5943 5943 5942 5941 5941 5940 5938 5937 5935 5934 5933 5932 5930 5929 5927 5926 5924 5923 5921 5920 5918 5916 5914 5913 5911 5909 5908 5906 5905 5903 5901 5900
5912 5916 5919 5922 5926 5930 5932 5935 5937 5938 5939 5941 5942 5943 5943 5941 5941 5940 5938 5937 5936 5935 5934 5932 5931 5930 5928 5927 5925 5924 5922 5920 5919 5917 5915 5913 5911 5910 5908 5906 5904 5903 5901 5899
5908 5912 5916 5919 5922 5926 5928 5932 5934 5937 5939 5940 5941 5941 5941 5940 5939 5938 5938 5937 5936 5934 5933 5932 5932 5930 5929 5927 5926 5924 5923 5921 5919 5917 5915 5913 5911 5909 5908 5906 5904 5902 5900 5898
5906 5910 5913 5915 5918 5922 5925 5928 5933 5936 5937 5939 5939 5940 5939 5939 5938 5937 5936 5936 5934 5934 5933 5933 5932 5930 5929 5928 5926 5925 5923 5921 5919 5917 5915 5913 5911 5909 5907 5906 5904 5902 5900 5898
5901 5905 5909 5911 5914 5918 5921 5925 5929 5931 5933 5934 5936 5937 5938 5936 5936 5936 5935 5935 5934 5933 5933 5931 5931 5930 5929 5928 5926 5925 5923 5921 5919 5917 5915 5913 5911 5909 5907 5905 5903 5901 5899 5897
5895 5900 5904 5907 5909 5914 5918 5921 5924 5928 5929 5932 5934 5936 5934 5934 5934 5934 5933 5933 5933 5932 5931 5931 5930 5929 5928 5927 5926 5924 5922 5921 5919 5917 5914 5912 5910 5908 5907 5904 5902 5901 5899 5896
5887 5893 5898 5902 5905 5909 5913 5916 5920 5923 5925 5927 5930 5933 5930 5931 5931 5931 5931 5930 5931 5930 5929 5929 5928 5928 5927 5926 5924 5923 5921 5920 5918 5916 5914 5912 5910 5908 5906 5904 5901 5900 5898 5895
5881 5886 5891 5896 5901 5904 5907 5911 5915 5918 5921 5923 5926 5930 5928 5927 5929 5928 5928 5928 5928 5928 5928 5927 5927 5926 5925 5924 5923 5922 5920 5918 5916 5914 5913 5911 5909 5907 5905 5903 5901 5899 5896 5894
5874 5878 5885 5891 5896 5900 5902 5905 5909 5913 5916 5919 5923 5924 5924 5924 5925 5925 5924 5924 5924 5925 5925 5925 5925 5925 5923 5922 5921 5920 5918 5916 5915 5913 5911 5909 5907 5906 5904 5902 5899 5897 5895 5892
5866 5872 5877 5883 5890 5895 5898 5901 5904 5907 5911 5915 5918 5920 5920 5919 5919 5919 5919 5920 5921 5921 5922 5922 5922 5922 5921 5920 5919 5917 5916 5914 5912 5911 5909 5907 5905 5904 5902 5900 5897 5895 5892 5890
5859 5865 5871 5876 5882 5888 5892 5896 5899 5902 5906 5909 5913 5915 5914 5914 5913 5914 5915 5916 5917 5917 5918 5918 5918 5918 5918 5917 5916 5914 5913 5911 5910 5908 5906 5905 5903 5901 5899 5897 5895 5892 5890 5888
5852 5858 5864 5869 5876 5880 5884 5889 5893 5897 5900 5904 5906 5908 5907 5908 5907 5908 5910 5911 5912 5913 5913 5914 5914 5914 5914 5913 5912 5911 5909 5908 5906 5905 5903 5901 5900 5898 5896 5894 5892 5889 5887 5885
5845 5850 5856 5863 5869 5872 5879 5884 5887 5890 5893 5896 5899 5901 5902 5902 5903 5904 5905 5906 5908 5908 5908 5909 5909 5909 5909 5909 5908 5907 5906 5904 5903 5901 5899 5898 5896 5894 5893 5891 5888 5886 5884 5882
5837 5843 5849 5855 5860 5865 5872 5876 5880 5883 5885 5889 5892 5895 5895 5896 5897 5898 5899 5900 5902 5903 5903 5903 5904 5904 5904 5904 5903 5903 5901 5900 5898 5897 5895 5893 5892 5890 5889 5887 5885 5882 5880 5878
5830 5836 5843 5848 5853 5859 5865 5870 5873 5877 5878 5882 5884 5887 5888 5889 5890 5892 5892 5894 5895 5896 5897 5898 5898 5898 5898 5898 5898 5897 5896 5895 5894 5892 5890 5889 5887 5885 5884 5882 5880 5878 5876 5874
5822 5828 5833 5840 5845 5852 5858 5861 5865 5869 5871 5874 5877 5878 5879 5882 5884 5885 5886 5887 5888 5889 5890 5891 5892 5892 5892 5892 5892 5891 5890 5889 5888 5886 5885 5883 5882 5880 5878 5877 5875 5873 5871 5869
5815 5821 5827 5833 5838 5846 5850 5853 5857 5859 5863 5866 5869 5870 5872 5875 5876 5877 5879 5880 5882 5882 5883 5884 5885 5886 5886 5886 5886 5885 5884 5883 5882 5880 5879 5877 5876 5874 5873 5871 5870 5868 5866 5864
5807 5815 5821 5826 5832 5836 5841 5844 5847 5851 5855 5858 5861 5862 5864 5866 5868 5870 5871 5873 5874 5875 5876 5877 5878 5878 5879 5879 5879 5878 5877 5876 5875 5874 5873 5871 5870 5869 5867 5866 5864 5862 5860 5859
5800 5806 5812 5817 5822 5827 5831 5835 5839 5843 5847 5850 5853 5855 5857 5858 5860 5862 5864 5865 5866 5867 5868 5869 5870 5871 5871 5872 5871 5870 5870 5869 5868 5867 5866 5865 5864 5862 5861 5859 5858 5857 5855 5853
5793 5798 5803 5808 5814 5818 5823 5827 5830 5835 5839 5843 5845 5847 5849 5851 5852 5854 5856 5857 5858 5859 5860 5861 5863 5863 5864 5864 5863 5863 5862 5861 5861 5860 5859 5858 5857 5855 5854 5853 5851 5850 5849 5847
5784 5790 5795 5800 5805 5810 5814 5818 5822 5827 5831 5834 5836 5838 5841 5842 5844 5846 5847 5849 5850 5851 5852 5853 5854 5855 5855 5855 5855 5855 5854 5853 5853 5852 5852 5851 5849 5848 5847 5845 5844 5843 5842 5840